Weather History for Lafayette, IN

Change the Weather History Date:

Friday, September 6, 2013

  Actual Average Record
Temperature  
Mean Temperature 71 °F 70 °F  
Max Temperature 85 °F 81 °F 96 °F (1998)
Min Temperature 57 °F 58 °F 46 °F (1988)
Degree Days  
Heating Degree Days 0 1  
Month to date heating degree days 1 5  
Since 1 July heating degree days 21 11  
Cooling Degree Days 6 6  
Month to date cooling degree days 29 38  
Year to date cooling degree days 755 890  
Growing Degree Days 20 (Base 50)    
Moisture  
Dew Point 56 °F    
Average Humidity 65    
Maximum Humidity 87    
Minimum Humidity 42    
Precipitation  
Precipitation 0.00 in 0.09 in 1.12 in (1983)
Month to date precipitation 0.00 0.53  
Year to date precipitation 27.63 26.08  
Sea Level Pressure  
Sea Level Pressure 30.16 in    
Wind  
Wind Speed 4 mph (ESE)    
Max Wind Speed 9 mph    
Max Gust Speed 12 mph    
Visibility 10 miles    
Events      
T = Trace of Precipitation, MM = Missing Value Source: NWS Daily Summary

Daily Weather History Graph

Daily Weather History Graph

Search for Another Location

Airport:

Trip Planner

Search our weather history database for the weather conditions in past years. The results will help you decide how hot, cold, wet, or windy it might be!

Date:

Astronomy

Sep. 06, 2013 Rise Set
Actual Time 7:20 AM EDT 8:11 PM EDT
Civil Twilight 6:52 AM EDT 8:38 PM EDT
Nautical Twilight 6:19 AM EDT 9:11 PM EDT
Astronomical Twilight 5:45 AM EDT 9:45 PM EDT
Moon 8:32 AM EDT (9/6) 8:34 PM EDT (9/6)
Length of Visible Light 13h 46m
Length of Day
12h 50m
New Moon, 1% of the Moon is Illuminated
Sep 6
New Moon
Sep 12
First Quarter
Sep 19
Full
Sep 26
Last Quarter
Oct 4
New

Hourly Weather History & Observations

Time (EDT) Temp. Heat Index Dew Point Humidity Pressure Visibility Wind Dir Wind Speed Gust Speed Precip Events Conditions
12:54 AM 64.9 °F - 55.9 °F 73% 30.20 in 10.0 mi Calm Calm - N/A   Clear
1:54 AM 63.0 °F - 55.0 °F 75% 30.20 in 10.0 mi NE 4.6 mph - N/A   Clear
2:54 AM 61.0 °F - 53.1 °F 75% 30.20 in 10.0 mi East 5.8 mph - N/A   Clear
3:54 AM 59.0 °F - 48.9 °F 69% 30.20 in 10.0 mi East 5.8 mph - N/A   Clear
4:54 AM 59.0 °F - 48.9 °F 69% 30.21 in 10.0 mi East 5.8 mph - N/A   Clear
5:54 AM 59.0 °F - 48.9 °F 69% 30.21 in 10.0 mi ENE 4.6 mph - N/A   Mostly Cloudy
6:54 AM 57.9 °F - 48.9 °F 72% 30.21 in 10.0 mi East 5.8 mph - N/A   Partly Cloudy
7:54 AM 57.9 °F - 48.9 °F 72% 30.22 in 10.0 mi East 6.9 mph - N/A   Scattered Clouds
8:54 AM 62.1 °F - 50.0 °F 65% 30.22 in 10.0 mi East 5.8 mph - N/A   Clear
9:54 AM 66.0 °F - 48.9 °F 54% 30.22 in 10.0 mi SE 6.9 mph - N/A   Clear
10:54 AM 71.1 °F - 51.1 °F 49% 30.21 in 10.0 mi Variable 5.8 mph - N/A   Clear
11:54 AM 75.0 °F - 53.1 °F 46% 30.21 in 10.0 mi Variable 5.8 mph - N/A   Clear
12:54 PM 79.0 °F - 54.0 °F 42% 30.19 in 10.0 mi South 5.8 mph - N/A   Clear
1:54 PM 80.1 °F 80.6 °F 57.9 °F 47% 30.17 in 10.0 mi Variable 3.5 mph - N/A   Clear
2:54 PM 81.0 °F 81.3 °F 59.0 °F 47% 30.14 in 10.0 mi WSW 4.6 mph - N/A   Clear
3:54 PM 82.9 °F 83.2 °F 60.1 °F 46% 30.12 in 10.0 mi SW 4.6 mph - N/A   Mostly Cloudy
4:54 PM 82.0 °F 82.4 °F 60.1 °F 47% 30.10 in 10.0 mi West 3.5 mph - N/A   Scattered Clouds
5:54 PM 82.9 °F 83.3 °F 61.0 °F 47% 30.09 in 10.0 mi SE 4.6 mph - N/A   Partly Cloudy
6:54 PM 82.0 °F 82.4 °F 60.1 °F 47% 30.08 in 10.0 mi Calm Calm - N/A   Clear
7:54 PM 78.1 °F - 63.0 °F 60% 30.06 in 10.0 mi Calm Calm - N/A   Clear
8:54 PM 73.9 °F - 63.0 °F 68% 30.07 in 10.0 mi SE 3.5 mph - N/A   Clear
9:54 PM 71.1 °F - 63.0 °F 75% 30.08 in 10.0 mi Calm Calm - N/A   Clear
10:54 PM 66.9 °F - 62.1 °F 84% 30.08 in 10.0 mi ENE 3.5 mph - N/A   Clear
11:54 PM 68.0 °F - 62.1 °F 81% 30.06 in 10.0 mi East 3.5 mph - N/A   Clear